Location: Erdweis
(48.5167°N, 15.3500°E)
Time: 13:07:28
(UTC+00:00)

USA 234 - Pass Details

Date: 24 January 2021
Orbit: 1100 x 1107 km, 123.0° (Epoch: 01 March)

Event Time Altitude Azimuth Distance (km) Brightness Sun altitude
Exits shadow 21:04:09 14° 295° (WNW) 2,641 5.6 -51.0°
Drops below altitude 10° 21:05:04 10° 298° (WNW) 2,965 6.0 -51.1°
Sets 21:07:41 0° 305° (NW) 3,927 6.8 -51.4°
